AFR41ZX LPPR-LFPG

Flight info

Callsign AFR41ZX
Flight time N/A
Altitude 38000
Route TURON P600 ASDEB/N0426F380 DCT LOTEE DCT GATMO DCT NTS/N0387F300 UN741 KEPER
Aircraft A20N/M-SDE2E3FGHIRWXY/LB1

Departure

Time N/A
Airport Francisco de Sá Carneiro Airport (LPPR)

Arrival

Time 2026-05-08 14:03
Airport Charles de Gaulle International Airport (LFPG)
Time Latitude Longitude Altitude Speed Heading
2026-05-08 13:19 46.53685 -2.79937 37940 ft 482 kts 50°
2026-05-08 13:20 46.57806 -2.72258 37939 ft 482 kts 50°
2026-05-08 13:20 46.61916 -2.64577 37942 ft 482 kts 50°
2026-05-08 13:21 46.65960 -2.57000 37938 ft 482 kts 50°
2026-05-08 13:21 46.69720 -2.49936 37938 ft 482 kts 50°
2026-05-08 13:22 46.73820 -2.42212 37940 ft 482 kts 50°
2026-05-08 13:22 46.77919 -2.34469 37939 ft 482 kts 50°
2026-05-08 13:23 46.82008 -2.26725 37920 ft 483 kts 50°
2026-05-08 13:23 46.86103 -2.18944 37918 ft 483 kts 50°
2026-05-08 13:24 46.90202 -2.11138 37924 ft 484 kts 50°
2026-05-08 13:24 46.94261 -2.03383 37933 ft 485 kts 50°
2026-05-08 13:25 46.98396 -1.95462 37938 ft 486 kts 50°
2026-05-08 13:25 47.02494 -1.87591 37946 ft 486 kts 50°
2026-05-08 13:26 47.06519 -1.79836 37941 ft 487 kts 50°
2026-05-08 13:26 47.10614 -1.71923 37955 ft 487 kts 50°
2026-05-08 13:27 47.14622 -1.64160 37945 ft 486 kts 50°
2026-05-08 13:27 47.18672 -1.56221 37936 ft 486 kts 51°
2026-05-08 13:28 47.22656 -1.48190 37934 ft 486 kts 51°
2026-05-08 13:28 47.26636 -1.40169 37942 ft 485 kts 50°
2026-05-08 13:29 47.30621 -1.32140 37940 ft 486 kts 50°
2026-05-08 13:29 47.34570 -1.24162 37940 ft 486 kts 51°
2026-05-08 13:30 47.38520 -1.16157 37936 ft 486 kts 51°
2026-05-08 13:30 47.42494 -1.08079 37939 ft 486 kts 51°
2026-05-08 13:31 47.46465 -0.99985 37943 ft 486 kts 51°
2026-05-08 13:31 47.50427 -0.91884 37942 ft 486 kts 51°
2026-05-08 13:32 47.53904 -0.83316 37938 ft 491 kts 62°
2026-05-08 13:32 47.56432 -0.73911 37934 ft 493 kts 68°
2026-05-08 13:33 47.58752 -0.64489 37991 ft 483 kts 68°
2026-05-08 13:33 47.61047 -0.55111 37901 ft 488 kts 68°
2026-05-08 13:34 47.62190 -0.50381 37658 ft 487 kts 68°
2026-05-08 13:34 47.63325 -0.45665 37406 ft 485 kts 68°
2026-05-08 13:34 47.64454 -0.40962 37154 ft 485 kts 68°
2026-05-08 13:34 47.65588 -0.36231 36898 ft 486 kts 68°
2026-05-08 13:35 47.66717 -0.31515 36659 ft 486 kts 68°
2026-05-08 13:35 47.67827 -0.26862 36417 ft 486 kts 68°
2026-05-08 13:35 47.68952 -0.22140 36166 ft 486 kts 68°
2026-05-08 13:35 47.70077 -0.17407 35917 ft 486 kts 68°
2026-05-08 13:36 47.71200 -0.12675 35668 ft 486 kts 68°
2026-05-08 13:36 47.72319 -0.07948 35419 ft 486 kts 67°
2026-05-08 13:36 47.73425 -0.03268 35173 ft 487 kts 67°
2026-05-08 13:36 47.74545 0.01482 34857 ft 488 kts 67°
2026-05-08 13:37 47.75645 0.06158 34199 ft 491 kts 67°
2026-05-08 13:37 47.76772 0.10969 33358 ft 494 kts 67°
2026-05-08 13:37 47.77904 0.15812 32350 ft 499 kts 66°
2026-05-08 13:37 47.79059 0.20702 31372 ft 501 kts 64°
2026-05-08 13:38 47.80580 0.25301 30482 ft 493 kts 52°
2026-05-08 13:38 47.82636 0.29283 29809 ft 478 kts 40°
2026-05-08 13:38 47.85099 0.32463 29295 ft 460 kts 30°
2026-05-08 13:38 47.87678 0.35107 28682 ft 454 kts 28°
2026-05-08 13:39 47.90041 0.37456 28128 ft 449 kts 28°
2026-05-08 13:39 47.92622 0.40048 27559 ft 445 kts 29°
2026-05-08 13:39 47.95146 0.42632 27266 ft 434 kts 30°
2026-05-08 13:39 47.97615 0.45193 26769 ft 431 kts 30°
2026-05-08 13:40 48.00063 0.47748 26197 ft 428 kts 31°
2026-05-08 13:40 48.02470 0.50270 25629 ft 426 kts 31°
2026-05-08 13:40 48.04885 0.52806 25069 ft 423 kts 32°
2026-05-08 13:40 48.07285 0.55331 24506 ft 420 kts 32°
2026-05-08 13:41 48.09666 0.57839 23926 ft 418 kts 32°
2026-05-08 13:41 48.12037 0.60341 23362 ft 416 kts 33°
2026-05-08 13:41 48.14355 0.62791 22801 ft 413 kts 33°
2026-05-08 13:41 48.16729 0.65304 22232 ft 410 kts 33°
2026-05-08 13:42 48.18924 0.67630 21697 ft 408 kts 33°
2026-05-08 13:42 48.21236 0.70083 21096 ft 407 kts 33°
2026-05-08 13:42 48.23533 0.72523 20581 ft 403 kts 33°
2026-05-08 13:42 48.25814 0.74949 20012 ft 401 kts 34°
2026-05-08 13:43 48.28084 0.77364 19459 ft 398 kts 34°
2026-05-08 13:43 48.30296 0.79721 18911 ft 396 kts 34°
2026-05-08 13:43 48.32538 0.82139 18353 ft 394 kts 37°
2026-05-08 13:43 48.34422 0.84828 17829 ft 392 kts 49°
2026-05-08 13:44 48.36030 0.88279 17258 ft 388 kts 62°
2026-05-08 13:44 48.37264 0.91860 16727 ft 385 kts 63°
2026-05-08 13:44 48.38497 0.95428 16169 ft 383 kts 63°
2026-05-08 13:44 48.39728 0.98978 15640 ft 380 kts 63°
2026-05-08 13:45 48.40940 1.02472 15339 ft 371 kts 63°
2026-05-08 13:45 48.42112 1.05863 15204 ft 365 kts 63°
2026-05-08 13:45 48.43289 1.09282 15078 ft 369 kts 63°
2026-05-08 13:45 48.44464 1.12701 14953 ft 366 kts 63°
2026-05-08 13:46 48.45632 1.16103 14826 ft 364 kts 63°
2026-05-08 13:46 48.46786 1.19467 14704 ft 357 kts 63°
2026-05-08 13:46 48.47888 1.22689 14580 ft 344 kts 63°
2026-05-08 13:46 48.48965 1.25835 14450 ft 332 kts 63°
2026-05-08 13:47 48.50007 1.28881 14318 ft 321 kts 63°
2026-05-08 13:47 48.51032 1.31884 14202 ft 325 kts 63°
2026-05-08 13:47 48.52069 1.34922 14068 ft 325 kts 63°
2026-05-08 13:47 48.53106 1.37947 13948 ft 323 kts 63°
2026-05-08 13:48 48.54136 1.40944 13811 ft 321 kts 63°
2026-05-08 13:48 48.55153 1.43908 13692 ft 316 kts 63°
2026-05-08 13:48 48.56163 1.46855 13576 ft 317 kts 63°
2026-05-08 13:48 48.57345 1.49645 13444 ft 317 kts 48°
2026-05-08 13:49 48.59045 1.51745 13328 ft 317 kts 29°
2026-05-08 13:49 48.61020 1.53219 13212 ft 317 kts 25°
2026-05-08 13:49 48.63003 1.54667 13069 ft 315 kts 25°
2026-05-08 13:49 48.64935 1.56086 12862 ft 310 kts 25°
2026-05-08 13:50 48.66884 1.57524 12334 ft 314 kts 26°
2026-05-08 13:50 48.68857 1.58983 11666 ft 317 kts 26°
2026-05-08 13:50 48.70796 1.60419 10987 ft 317 kts 26°
2026-05-08 13:50 48.72776 1.61888 10322 ft 316 kts 26°
2026-05-08 13:51 48.74743 1.63349 9649 ft 314 kts 26°
2026-05-08 13:51 48.76661 1.64775 9362 ft 299 kts 26°
2026-05-08 13:51 48.78485 1.66131 9203 ft 289 kts 26°
2026-05-08 13:51 48.80281 1.67465 9078 ft 289 kts 26°
2026-05-08 13:52 48.82101 1.68820 8633 ft 290 kts 26°
2026-05-08 13:52 48.83877 1.70144 8445 ft 277 kts 26°
2026-05-08 13:52 48.85503 1.71518 8296 ft 260 kts 40°
2026-05-08 13:52 48.86548 1.73576 8170 ft 241 kts 66°
2026-05-08 13:53 48.87205 1.75861 7969 ft 231 kts 68°
2026-05-08 13:53 48.87836 1.78112 7703 ft 231 kts 68°
2026-05-08 13:53 48.88466 1.80354 7442 ft 229 kts 68°
2026-05-08 13:53 48.89084 1.82579 7174 ft 229 kts 68°
2026-05-08 13:54 48.89692 1.84802 6928 ft 228 kts 68°
2026-05-08 13:54 48.90299 1.87022 6674 ft 227 kts 68°
2026-05-08 13:54 48.90897 1.89208 6427 ft 226 kts 68°
2026-05-08 13:54 48.91499 1.91411 6182 ft 226 kts 68°
2026-05-08 13:55 48.92102 1.93617 5925 ft 225 kts 68°
2026-05-08 13:55 48.92432 1.94827 5797 ft 224 kts 68°
2026-05-08 13:55 48.93597 1.99097 5295 ft 222 kts 68°
2026-05-08 13:56 48.94186 2.01263 5099 ft 220 kts 68°
2026-05-08 13:56 48.94770 2.03411 5046 ft 220 kts 68°
2026-05-08 13:56 48.95355 2.05567 5049 ft 221 kts 68°
2026-05-08 13:56 48.95945 2.07740 5048 ft 222 kts 68°
2026-05-08 13:57 48.96494 2.09877 5044 ft 221 kts 72°
2026-05-08 13:57 48.96853 2.12149 5047 ft 222 kts 81°
2026-05-08 13:57 48.97034 2.14396 5043 ft 221 kts 85°
2026-05-08 13:57 48.97149 2.16559 5054 ft 222 kts 85°
2026-05-08 13:58 48.97274 2.18887 5036 ft 220 kts 85°
2026-05-08 13:58 48.97398 2.21220 4869 ft 222 kts 85°
2026-05-08 13:58 48.97519 2.23466 4568 ft 219 kts 85°
2026-05-08 13:58 48.97643 2.25807 4266 ft 218 kts 85°
2026-05-08 13:59 48.97770 2.28154 3980 ft 219 kts 86°
2026-05-08 13:59 48.97894 2.30467 3687 ft 220 kts 86°
2026-05-08 13:59 48.98017 2.32793 3396 ft 221 kts 86°
2026-05-08 13:59 48.98142 2.35117 3106 ft 224 kts 86°
2026-05-08 14:00 48.98271 2.37477 2796 ft 223 kts 86°
2026-05-08 14:00 48.98395 2.39797 2519 ft 222 kts 86°
2026-05-08 14:00 48.98519 2.42142 2221 ft 219 kts 86°
2026-05-08 14:00 48.98634 2.44319 1947 ft 196 kts 86°
2026-05-08 14:01 48.98733 2.46096 1732 ft 176 kts 85°
2026-05-08 14:01 48.98820 2.47795 1483 ft 155 kts 85°
2026-05-08 14:01 48.98904 2.49336 1296 ft 137 kts 85°
2026-05-08 14:01 48.98976 2.50721 1112 ft 125 kts 84°
2026-05-08 14:02 48.99050 2.52064 952 ft 130 kts 84°
2026-05-08 14:02 48.99122 2.53424 786 ft 128 kts 84°
2026-05-08 14:02 48.99193 2.54751 620 ft 128 kts 84°
2026-05-08 14:02 48.99265 2.56088 451 ft 127 kts 84°
2026-05-08 14:03 48.99337 2.57406 358 ft 117 kts 84°
2026-05-08 14:03 48.99389 2.58193 352 ft 40 kts 83°
2026-05-08 14:03 48.99476 2.58679 359 ft 47 kts 68°
2026-05-08 14:03 48.99592 2.59101 356 ft 37 kts 73°
2026-05-08 14:04 48.99630 2.59456 361 ft 28 kts 85°
2026-05-08 14:04 48.99654 2.59662 357 ft 6 kts 38°
2026-05-08 14:04 48.99678 2.59679 355 ft 0 kts 19°
2026-05-08 14:04 48.99679 2.59679 355 ft 0 kts 18°
2026-05-08 14:05 48.99737 2.59688 356 ft 17 kts 352°
2026-05-08 14:06 48.99887 2.59653 355 ft 25 kts 353°
2026-05-08 14:06 49.00076 2.59630 354 ft 26 kts 354°
2026-05-08 14:06 49.00254 2.59605 356 ft 18 kts 352°
2026-05-08 14:06 49.00300 2.59593 360 ft 10 kts 351°
2026-05-08 14:07 49.00433 2.59565 355 ft 32 kts 358°
2026-05-08 14:07 49.00658 2.59553 353 ft 34 kts 356°
2026-05-08 14:07 49.00879 2.59529 354 ft 22 kts 353°
2026-05-08 14:07 49.00968 2.59511 361 ft 17 kts 335°
2026-05-08 14:08 49.00985 2.59334 355 ft 19 kts 266°
2026-05-08 14:08 49.00977 2.59195 357 ft 21 kts 264°
2026-05-08 14:08 49.00957 2.58959 355 ft 24 kts 259°
2026-05-08 14:08 49.00929 2.58704 356 ft 25 kts 261°
2026-05-08 14:09 49.00919 2.58425 355 ft 27 kts 271°
2026-05-08 14:09 49.00906 2.58143 357 ft 26 kts 259°
2026-05-08 14:09 49.00893 2.57922 359 ft 16 kts 270°
2026-05-08 14:09 49.00888 2.57768 359 ft 11 kts 252°
2026-05-08 14:10 49.00825 2.57714 362 ft 12 kts 196°
2026-05-08 14:10 49.00746 2.57691 361 ft 5 kts 160°
2026-05-08 14:10 49.00725 2.57729 355 ft 7 kts 126°
2026-05-08 14:10 49.00702 2.57776 360 ft 0 kts 125°
2026-05-08 14:11 49.00702 2.57777 360 ft 0 kts 125°